Preview of NWS' New Version of Forecast
This preview is not operational and should not be used for support decisions.
Latest weather observations around

INDEPENDENCE (KIDP)

Using International System of Units (Switch to English Units)
Date/ Time (CDT) Wind (kph) Vis. (km) Weather Sky Cond. Temp (°C) Rel. Humidity Wind Chill (°C) Heat Index (°C) Pressure Precip. (cm)
Air Dwpt 6 hour Altimeter (hPa) Sea level (hPa) 1 hr 3 hr 6 hr
Max Min
Apr 23 08:55 NE 22 16.09   OVC038 13 10     79%     1018.29        
Apr 23 08:35 NNE 22 16.09 Cloudy OVC038 13 10     79%     1017.61        
Apr 23 08:15 NNE 22 16.09 Cloudy OVC036 14 11     82%     1017.6        
Apr 23 07:55 NNE 19 16.09 Light Rain BKN036 OVC120 14 11     83%     1017.95        
Apr 23 07:35 NNE 17 16.09 Light Rain SCT042 OVC120 14 11     82%     1017.95        
Apr 23 07:15 NE 13 16.09 Light Rain SCT042 OVC110 14 11     81%     1018.3        
Apr 23 06:55 NNE 17 16.09 Mostly Cloudy BKN120 14 11     79%     1017.61        
Apr 23 06:35 NNE 17 16.09 Mostly Cloudy SCT032 SCT040 BKN120 15 11     80%     1017.61        
Apr 23 06:15 NNE 15 16.09 Mostly Cloudy SCT032 BKN040 BKN120 15 11     81%     1017.6        
Apr 23 05:55 NNE 13 16.09 Cloudy SCT032 OVC040 15 11     79%     1017.95        
Apr 23 05:35 NNE 11 16.09 Cloudy OVC032 15 11     78%     1017.6        
Apr 23 05:15 N 11 16.09 Cloudy OVC032 15 11     78%     1017.27        
Apr 23 04:55 N 13 16.09 Mostly Cloudy BKN032 15 11     78%     1016.9        
Apr 23 04:35 NNE 15 16.09 Mostly Cloudy SCT032 SCT042 BKN120 15 11     78%     1016.93        
Apr 23 04:15 N 17 16.09 Mostly Cloudy BKN032 16 11     76%     1017.27        
Apr 23 03:55 N 17 16.09 Cloudy OVC032 16 12     77%     1017.27        
Apr 23 03:35 N 19 16.09 Cloudy OVC030 16 13     82%     1017.61        
Apr 23 03:15 N 13 16.09 Cloudy OVC030 16 13     80%     1017.6        
Apr 23 02:55 N 11 16.09 Cloudy OVC030 16 13     81%     1017.6        
Apr 23 02:35 N 9 16.09 Cloudy OVC032 16 13     82%     1018        
Apr 23 02:15 N 11 16.09 Cloudy OVC032 16 13     81%     1018        
Apr 23 01:55 N 9 16.09 Cloudy OVC032 16 13     80%     1017.95        
Apr 23 01:35 N 11 16.09 Cloudy OVC030 16 13     78%     1017.95        
Apr 23 01:15 NNW 9 16.09 Cloudy OVC030 16 13     83%     1018        
Apr 23 00:55 N 11 16.09 Cloudy OVC030 16 13     82%     1017.95        
Apr 23 00:35 Calm 16.09 Cloudy OVC030 17 13     78%     1018        
Apr 23 00:15 NNW 5 16.09 Cloudy SCT030 OVC060 16 13     81%     1018        
Apr 22 23:55 NNE 9 16.09 Cloudy OVC060 16 13     79%     1017.61        
Apr 22 23:35 N 9 16.09 Cloudy OVC060 17 13     77%     1017.95        
Apr 22 23:15 N 11 16.09 Cloudy SCT028 SCT038 OVC060 18 13     73%     1017.6        
Apr 22 22:55 N 15 16.09 Cloudy SCT025 BKN038 OVC060 18 13     73%     1017.6        
Apr 22 22:35 N 17 16.09 Cloudy SCT015 SCT025 OVC030 18 13     72%     1017.95        
Apr 22 22:15 NNW 22 16.09 Cloudy BKN015 OVC023 19 15     78%     1017.6        
Apr 22 21:55 W 7 16.09 Cloudy SCT015 BKN048 OVC060 19 17     90%     1017.27        
Apr 22 21:35 W 5 16.09 Cloudy SCT048 OVC060 19 17     90%     1017.3        
Apr 22 21:15 SW 5 16.09 Cloudy OVC060 19 17     87%     1016.9        
Apr 22 20:55 SW 7 16.09 Cloudy OVC060 19 17     86%     1016.93        
Apr 22 20:35 SW 9 16.09 Cloudy OVC060 19 17     85%     1016.93        
Apr 22 20:15 SW 9 16.09 Cloudy OVC060 20 17     84%     1016.6        
Apr 22 19:55 SSW 11 16.09 Cloudy OVC060 20 17     82%     1016.59        
Apr 22 19:35 SSW 15 16.09 Cloudy OVC060 20 17     81%     1016.59        
Apr 22 19:15 SSW 15 16.09 Cloudy OVC060 20 17     81%     1016.6        
Apr 22 18:55 SSW 13 16.09 Cloudy OVC050 20 17     80%     1016.59        
Apr 22 18:35 SSW 15 16.09 Cloudy OVC050 20 17     80%     1016.59        
Apr 22 18:15 S 18 16.09 Cloudy OVC050 20 17     79%     1016.9        
Apr 22 17:55 S 22 16.09 Cloudy OVC048 20 17     79%     1016.93        
Apr 22 17:35 S 15 16.09 Cloudy OVC048 20 17     80%     1016.6        
Apr 22 17:15 S 24 16.09 Cloudy OVC048 20 17     79%     1016.59        
Apr 22 16:55 S 19 16.09 Cloudy SCT020 SCT037 OVC046 21 17     79%     1016.26        
Apr 22 16:35 S 24 16.09 Cloudy SCT020 SCT030 OVC048 21 17     78%     1015.9        
Apr 22 16:15 S 24 16.09 Cloudy SCT030 SCT037 OVC048 21 17     75%   21 1015.9        
Apr 22 15:55 S 26 16.09 Cloudy OVC028 21 17     75%   21 1016.26        
Apr 22 15:35 S 22 16.09 Cloudy OVC026 21 17     76%     1016.26        
Apr 22 15:15 S 24 16.09 Cloudy OVC026 21 17     76%     1016.3        
Apr 22 14:55 S 20 16.09 Cloudy OVC026 21 17     76%     1016.26        
Apr 22 14:35 S 28 16.09 Cloudy OVC028 21 16     75%     1016.59        
Apr 22 14:15 SSW 26 16.09 Cloudy OVC028 21 16     73%   22 1016.3        
Apr 22 13:55 S 24 16.09 Cloudy OVC026 21 16     74%     1016.26        
Apr 22 13:35 S 22 16.09 Cloudy OVC026 21 16     74%     1016.26        
Apr 22 13:15 SSW 22 16.09 Cloudy OVC026 21 16     75%     1016.3        
Apr 22 12:55 S 22 16.09 Cloudy OVC026 20 16     75%     1016.26        
Apr 22 12:35 S 22 16.09 Cloudy OVC024 20 16     75%     1016.26        
Apr 22 12:15 S 21 16.09 Cloudy OVC024 20 16     74%     1016.3        
Apr 22 11:55 S 26 16.09 Cloudy OVC024 20 15     74%     1016.26        
Apr 22 11:35 SSW 26 16.09 Cloudy OVC024 20 15     73%     1015.92        
Apr 22 11:15 S 30 16.09 Cloudy OVC024 20 15     72%     1015.9        
Apr 22 10:55 S 30 16.09 Cloudy BKN024 OVC031 20 15     73%     1015.9        
Apr 22 10:35 S 32 16.09 Cloudy and Windy OVC030 20 15     72%     1015.6        
Apr 22 10:15 SSW 32 16.09 Cloudy and Windy OVC029 20 15     72%     1015.2        
Apr 22 09:55 S 33 16.09 Cloudy and Windy OVC029 20 15     72%     1015.24        
Apr 22 09:35 S 31 16.09 Cloudy and Windy OVC029 19 14     73%     1015.24        
Apr 22 09:15 S 28 16.09 Cloudy OVC031 19 14     74%     1015.24        
Apr 22 08:55 S 26 16.09 Cloudy OVC033 19 14     75%     1014.9        
Apr 22 08:35 S 20 16.09 Cloudy OVC033 18 14     76%     1014.9        
Apr 22 08:15 S 20 16.09 Cloudy OVC033 18 14     77%     1014.9        
Apr 22 07:55 SSE 19 16.09 Cloudy OVC035 17 13     77%     1014.9        
Apr 22 07:35 SSE 17 16.09 Cloudy OVC035 17 13     78%     1014.56        
Apr 22 07:15 SSE 13 16.09 Cloudy OVC039 17 13     80%     1014.56        
Apr 22 06:55 SSE 11 16.09 Partly Cloudy SCT041 16 13     83%     1014.2        
Apr 22 06:35 SE 15 16.09 Clear CLR 16 13     82%     1013.88        
Apr 22 06:15 SE 9 16.09 Clear CLR 16 12     81%     1013.9        
Apr 22 05:55 S 9 16.09 Clear CLR 16 12     78%     1013.9        
Apr 22 05:35 S 9 16.09 Clear CLR 16 12     77%     1013.21        
Apr 22 05:15 SSW 8 16.09 Clear CLR 17 12     74%     1013.2        
Apr 22 04:55 S 19 16.09 Clear CLR 18 12     72%     1012.53        
Apr 22 04:35 S 22 16.09 Clear CLR 18 12     69%     1012.19        
Apr 22 04:15 SSW 24 16.09 Clear CLR 18 12     68%     1012.5        
Apr 22 03:55 S 26 16.09 Clear CLR 19 12     66%     1011.51        
Apr 22 03:35 S 30 16.09 Clear CLR 19 12     65%     1011.51        
Apr 22 03:15 S 37 16.09 Clear and Windy CLR 19 12     64%     1011.18        
Apr 22 02:55 S 30 16.09 Clear CLR 19 12     63%     1011.18        
Apr 22 02:35 S 31 16.09 Clear and Windy CLR 19 12     63%     1011.51        
Apr 22 02:15 S 32 16.09 Clear and Windy CLR 20 12     63%     1011.5        
Apr 22 01:55 S 30 16.09 Clear CLR 20 12     63%     1011.9        
Apr 22 01:35 S 32 16.09 Clear and Windy CLR 20 12     62%     1011.9        
Apr 22 01:15 S 32 16.09 Clear and Windy CLR 20 12     61%     1011.9        
Apr 22 00:55 S 31 16.09 Clear and Windy CLR 20 12     58%     1012.19        
Apr 22 00:35 S 28 16.09 Clear CLR 20 11     56%     1011.85        
Apr 22 00:15 S 28 16.09 Clear CLR 21 11     55%     1011.9        
Apr 21 23:55 S 26 16.09 Clear CLR 21 11     53%   21 1012.19        
Apr 21 23:35 S 31 16.09 Clear and Windy CLR 22 11     52%   21 1011.85        
Apr 21 23:15 S 32 16.09 Clear and Windy CLR 22 11     52%   21 1011.9        
Apr 21 22:55 S 30 16.09 Clear CLR 22 11     50%   21 1011.85        
Apr 21 22:35 S 30 16.09 Clear CLR 22 11     48%   22 1011.51        
Apr 21 22:15 S 32 16.09 Clear and Windy CLR 22 10     47%   22 1010.8        
Apr 21 21:55 S 31 16.09 Clear and Windy CLR 23 10     45%   22 1010.84        
Apr 21 21:35 S 35 16.09 Clear and Windy CLR 23 10     43%   23 1010.5        
Apr 21 21:15 S 33 16.09 Clear and Windy CLR 23 10     42%   23 1010.5        
Apr 21 20:55 S 30 16.09 Clear CLR 23 10     41%   23 1010.16        
Apr 21 20:35 S 30 16.09 Clear CLR 24 9     39%   23 1009.82        
Apr 21 20:15 S 32 16.09 Clear and Windy CLR 24 9     38%   24 1009.8        
Apr 21 19:55 S 33 16.09 Clear and Windy CLR 25 9     37%   24 1009.48        
Apr 21 19:35 S 28 16.09 Clear CLR 25 10     38%   24 1009.14        
Apr 21 19:15 S 39 16.09 Clear and Windy CLR 25 9     37%   25 1009.2        
Apr 21 18:55 S 35 16.09 Clear and Windy CLR 26 10     36%   25 1009.14        
Apr 21 18:35 S 44 16.09 Clear and Breezy CLR 27 10     35%   26 1008.81        
Apr 21 18:15 S 37 16.09 Clear and Windy CLR 27 10     35%   27 1008.81        
Apr 21 17:55 SSE 42 16.09 Clear and Breezy CLR 27 10     34%   27 1008.8        
Apr 21 17:35 S 43 16.09 Clear and Breezy CLR 27 9     32%   27 1008.81        
Apr 21 17:15 S 41 16.09 Clear and Breezy CLR 28 10     33%   27 1008.81        
Apr 21 16:55 S 35 16.09 Clear and Windy CLR 27 10     35%   26 1008.81        
Apr 21 16:35 S 43 16.09 Clear and Breezy CLR 27 10     34%   27 1008.81        
Apr 21 16:15 SSE 48 16.09 Clear and Breezy CLR 27 9     34%   26 1008.8        
Apr 21 15:55 SSE 48 16.09 Clear and Breezy CLR 27 10     34%   27 1009.14        
Apr 21 15:35 S 48 16.09 Clear and Breezy CLR 27 10     33%   27 1009.48        
Apr 21 15:15 S 50 16.09 Clear and Breezy CLR 27 10     35%   27 1009.48        
Apr 21 14:55 SSE 54 16.09 Clear and Breezy CLR 27 11     35%   27 1009.48        
Apr 21 14:35 S 52 16.09 Clear and Breezy CLR 27 11     37%   26 1009.8        
Apr 21 14:15 S 46 16.09 Clear and Breezy CLR 28 12     38%   27 1009.8        
Apr 21 13:55 S 50 16.09 Clear and Breezy CLR 27 12     39%   27 1010.2        
Apr 21 13:35 SSE 48 16.09 Clear and Breezy CLR 27 13     43%   26 1009.82        
Apr 21 13:15 SSE 43 16.09 Clear and Breezy CLR 26 13     43%   26 1010.16        
Apr 21 12:55 S 41 16.09 Clear and Breezy CLR 26 13     44%   26 1010.5        
Apr 21 12:35 S 46 16.09 Clear and Breezy CLR 25 12     43%   25 1010.8        
Apr 21 12:15 S 45 16.09 Clear and Breezy CLR 25 12     43%   25 1010.8        
Apr 21 11:55 S 44 16.09 Clear and Breezy CLR 25 11     42%   25 1011.18        
Apr 21 11:35 S 44 16.09 Clear and Breezy CLR 24 12     45%   24 1011.51        
Apr 21 11:15 S 39 16.09 Clear and Windy CLR 24 12     49%   23 1011.5        
Apr 21 10:55 S 41 16.09 Clear and Breezy CLR 22 12     52%   22 1011.85        
Apr 21 10:35 S 37 16.09 Clear and Windy CLR 22 12     55%   21 1011.85        
Apr 21 10:15 S 37 16.09 Clear and Windy CLR 21 12     55%     1011.85        
Apr 21 09:55 S 39 16.09 Clear and Windy CLR 20 11     57%     1011.9        
Apr 21 09:35 S 32 16.09 Clear and Windy CLR 20 11     57%     1012.2        
Apr 21 09:15 S 35 16.09 Clear and Windy CLR 19 11     58%     1012.19        
Apr 21 08:55 S 39 16.09 Clear and Windy CLR 18 11     61%     1012.2        
Apr 21 08:35 S 33 16.09 Clear and Windy CLR 18 10     63%     1012.19        
Apr 21 08:15 S 30 16.09 Clear CLR 17 10     65%     1012.19        
Apr 21 07:55 S 30 16.09 Clear CLR 16 10     66%     1012.2        
Apr 21 07:35 S 26 16.09 Clear CLR 16 10     68%     1012.19        
Apr 21 07:15 S 24 16.09 Clear CLR 15 10     70%     1011.85        
Apr 21 06:55 S 26 16.09 Clear CLR 15 10     72%     1011.9        
Apr 21 06:35 S 24 16.09 Clear CLR 15 9     71%     1011.51        
Apr 21 06:15 S 24 16.09 Clear CLR 15 10     71%     1011.5        
Apr 21 05:55 S 22 16.09 Clear CLR 14 10     73%     1011.2        
Apr 21 05:35 S 21 16.09 Clear CLR 14 9     74%     1011.2        
Apr 21 05:15 S 21 16.09 Clear CLR 14 9     72%     1011.2        
Apr 21 04:55 S 18 16.09 Clear CLR 14 9     71%     1011.2        
Apr 21 04:35 S 19 16.09 Clear CLR 14 9     71%     1011.18        
Apr 21 04:15 S 17 16.09 Clear CLR 15 9     70%     1011.2        
Apr 21 03:55 S 21 16.09 Clear CLR 15 9     67%     1010.8        
Apr 21 03:35 S 24 16.09 Clear CLR 15 9     66%     1010.84        
Apr 21 03:15 S 28 16.09 Clear CLR 16 9     63%     1010.8        
Apr 21 02:55 S 28 16.09 Clear CLR 16 9     62%     1010.84        
Apr 21 02:35 S 26 16.09 Clear CLR 16 9     61%     1010.84        
Apr 21 02:15 S 24 16.09 Clear CLR 16 9     61%     1011.2        
Apr 21 01:55 S 20 16.09 Clear CLR 16 9     61%     1011.51        
Apr 21 01:35 S 24 16.09 Clear CLR 16 9     62%     1011.51        
Apr 21 01:15 S 22 16.09 Clear CLR 16 9     62%     1011.5        
Apr 21 00:55 S 17 16.09 Clear CLR 16 9     64%     1011.85        
Apr 21 00:35 S 17 16.09 Clear CLR 16 9     63%     1011.85        
Apr 21 00:15 S 18 16.09 Clear CLR 16 9     62%     1011.9        
Apr 20 23:55 S 20 16.09 Clear CLR 17 9     59%     1011.51        
Apr 20 23:35 S 20 16.09 Clear CLR 17 9     57%     1011.51        
Apr 20 23:15 S 22 16.09 Clear CLR 18 9     55%     1011.5        
Apr 20 22:55 SSE 17 16.09 Clear CLR 16 8     60%     1011.51        
Apr 20 22:35 SSE 15 16.09 Clear CLR 16 9     61%     1011.51        
Apr 20 22:15 S 17 16.09 Clear CLR 16 9     60%     1011.51        
Apr 20 21:55 SSE 18 16.09 Clear CLR 17 9     57%     1011.2        
Apr 20 21:35 SSE 19 16.09 Clear CLR 18 8     55%     1010.84        
Apr 20 21:15 SSE 17 16.09 Clear CLR 17 8     57%     1010.84        
Apr 20 20:55 SSE 17 16.09 Clear CLR 19 8     50%     1010.84        
Apr 20 20:35 SSE 20 16.09 Clear CLR 19 8     49%     1010.5        
Apr 20 20:15 SSE 18 16.09 Clear CLR 20 8     47%     1010.5        
Apr 20 19:55 SSE 19 16.09 Clear CLR 20 8     45%     1010.5        
Apr 20 19:35 SSE 24 16.09 Clear CLR 21 8     43%   21 1010.5        
Apr 20 19:15 SSE 21 16.09 Clear CLR 22 9     42%   22 1010.5        
Apr 20 18:55 SSE 21 16.09 Clear CLR 23 9     41%   22 1010.5        
Apr 20 18:35 SSE 19 16.09 Clear CLR 24 9     39%   23 1010.84        
Apr 20 18:15 S 24 16.09 Clear CLR 24 8     36%   23 1010.8        
Apr 20 17:55 SSE 24 16.09 Clear CLR 24 8     36%   24 1011.18        
Apr 20 17:35 S 21 16.09 Clear CLR 25 8     35%   24 1011.2        
Apr 20 17:15 S 19 16.09 Clear CLR 25 7     33%   24 1011.51        
Apr 20 16:55 SSW 19 16.09 Clear CLR 25 9     35%   24 1011.85        
Apr 20 16:35 SSW 19 16.09 Clear CLR 25 8     34%   24 1011.85        
Apr 20 16:15 S 22 16.09 Clear CLR 25 8     34%   24 1012.2        
Apr 20 15:55 S 17 16.09 Clear CLR 24 7     33%   24 1012.5        
Apr 20 15:35 S 17 16.09 Clear CLR 24 7     33%   24 1013.21        
Apr 20 15:15 S 18 16.09 Clear CLR 24 8     35%   23 1013.6        
Apr 20 14:55 SSW 19 16.09 Clear CLR 24 6     33%   23 1013.88        
Apr 20 14:35 S 15 16.09 Clear CLR 23 6     33%   23 1013.88        
Apr 20 14:15 S 26 16.09 Clear CLR 23 6     33%   22 1014.2        
Apr 20 13:55 S 22 16.09 Clear CLR 23 6     33%   22 1014.56        
Apr 20 13:35 S 24 16.09 Clear CLR 22 5     32%   21 1014.9        
Apr 20 13:15 SW 17 16.09 Clear CLR 22 6     36%   21 1014.9        
Apr 20 12:55 SSW 20 16.09 Clear CLR 22 5     35%   21 1015.24        
Apr 20 12:35 SSW 13 16.09 Clear CLR 21 5     34%     1015.58        
Apr 20 12:15 S 13 16.09 Clear CLR 21 5     35%     1015.92        
Apr 20 11:55 SW 13 16.09 Clear CLR 20 4     36%     1016.3        
Apr 20 11:35 S 15 16.09 Clear CLR 20 4     35%     1016.6        
Apr 20 11:15 SSW 21 16.09 Clear CLR 19 3     35%     1016.6        
Apr 20 10:55 SW 19 16.09 Clear CLR 19 4     37%     1016.59        
Apr 20 10:35 SW 15 16.09 Clear CLR 18 5     42%     1016.59        
Apr 20 10:15 SSW 11 16.09 Clear CLR 17 5     44%     1016.93        
Apr 20 09:55 SW 13 16.09 Clear CLR 16 5     47%     1016.59        
Apr 20 09:35 SSW 9 16.09 Clear CLR 15 5     53%     1016.59        
Apr 20 09:15 SSW 6 16.09 Clear CLR 13 5     59%     1016.93        
May 15 13:35 WSW 17 16.09 Mostly Cloudy BKN034 BKN039 BKN060 27 20     69%   28 1015.2        
May 15 04:15 SE 22 16.09 Clear CLR 17 16     93%     1011.5        
May 14 22:35   8.05 Thunderstorms and Haze BKN050 BKN060 BKN120 23 17     66%   24 1013.2        
May 14 11:55 SSW 33 16.09 Clear and Windy CLR 30 21     61%   32 1013.2        
May 14 11:15 S 39 16.09 Clear and Windy CLR 29 21     63%   31 1013.2        
May 14 10:55 SSW 33 16.09 Clear and Windy CLR 27 20     66%   29 1013.6        
May 14 08:55 S 21 16.09 Clear CLR 23 20     80%   24 1013.9        
May 14 06:35 S 15 16.09 Clear CLR 21 19     84%   22 1012.9        
Notice The following observation data may not be complete
May 14 00:55   16.09 Clear CLR          %              
May 13 19:55 S 22 16.09 Clear CLR 27 17     55%   28 1012.2        
May 13 08:55 S 26 16.09 Clear CLR 24 20     78%   25 1015.2        
May 13 06:35 S 11 16.09 Clear CLR 19 18     93%     1014.6        
May 13 02:15 SSE 9 16.09 Clear CLR 19 18     90%     1014.2        
May 13 00:35 S 5 16.09 Clear CLR 20 18     86%     1014.9        
May 12 21:15 S 15 16.09 Mostly Cloudy BKN041 25 19     70%   25 1012.9        
May 12 16:15 S 33 16.09 Clear and Windy   29 21     62%   31 1011.9        
May 12 04:35 SSE 17 16.09 Clear CLR 21 17     78%     1010.2        
May 12 01:55 S 22 16.09 Clear CLR 23 17     72%   23 1009.2        
May 11 14:15 S 35 16.09 Clear and Windy CLR 28 18     53%   29 1008.1        
May 11 09:35 SSW 37 16.09 Clear and Windy CLR 23 16     66%   23 1009.2        
Jun 12 08:15 S 28 16.09 Clear CLR 23 20     83%   24 1013.2        
Jun 12 07:12 SSE 17 16.09 Clear CLR 22 18     78%   22 1012.87        
Jun 12 05:55 S 17 16.09 Clear CLR 21 17     78%     1012.2        
Jun 12 05:12 S 19 16.09 Clear CLR 22 17     73%   22 1011.85        
Jun 12 02:12 SSE 17 16.09 Clear CLR 22 18     78%   22 1011.85        
Jun 12 01:52 SSE 17 16.09 Clear CLR 22 18     78%   22 1012.19        
Notice The following observation data may not be complete
Jun 12 00:15   16.09 Clear CLR          %              
Notice The following observation data may not be complete
Jun 11 23:15   16.09 Clear CLR          %              
Notice The following observation data may not be complete
Jun 11 22:47   16.09 Clear CLR          %              
Notice The following observation data may not be complete
Jun 11 21:42   16.09 Clear CLR          %              
Jun 11 21:07 SSE 22 16.09 Clear CLR 26 18     61%   26 1010.5        
Jun 11 19:27 SSE 24 16.09 Clear CLR 28 19     58%   29 1010.16        
Notice The following observation data may not be complete
Jun 11 18:42   16.09 Clear CLR          %              
Jun 11 18:12 SSE 33 16.09 Clear and Windy CLR 29 19     55%   30 1010.16        
Jun 11 17:27 SSE 31 16.09 Clear and Windy CLR 30 19     52%   31 1010.5        
Jun 11 17:12 SSE 43 16.09 Clear and Breezy CLR 30 19     52%   31 1010.5        
Jun 11 16:32 S 39 16.09 Clear and Windy CLR 30 19     52%   31 1010.5        
Jun 11 15:17 SSE 39 16.09 Partly Cloudy and Windy SCT043 31 19     49%   32 1011.18        
Notice The following observation data may not be complete
Jun 11 15:15   16.09 Partly Cloudy SCT043          %              
Jun 11 15:12 SSE 43 16.09 Clear and Breezy   31 19     49%   32 1011.18        
Jun 11 14:52 S 35 16.09 Clear and Windy CLR 31 19     49%   32 1011.18        
Jun 11 12:42 S 31 16.09 Clear and Windy CLR 30 18     49%   31 1011.51        
Notice The following observation data may not be complete
Jun 11 11:47   16.09 Clear CLR          %              
Jun 11 11:32 S 37 16.09 Clear and Windy CLR 29 18     52%   30 1011.51        
Jun 11 10:42 S 31 16.09 Clear and Windy CLR 28 18     55%   29 1011.18        
Jun 11 10:07 S 33 16.09 Clear and Windy CLR 27 18     58%   28 1011.51        
Jun 11 08:02 S 30 16.09 Clear CLR 23 17     69%   23 1011.51        
Jun 11 07:12 SSE 28 16.09 Clear CLR 22 17     73%   22 1011.51        
Jun 11 07:07 SSE 26 16.09 Clear CLR 22 17     73%   22 1011.18        
Jun 11 06:52 SSE 26 16.09 Clear CLR 22 17     73%   22 1011.18        
Jun 11 05:12 SSE 20 16.09 Clear CLR 22 17     73%   22 1010.84        
Jun 11 04:32 S 22 16.09 Clear CLR 22 17     73%   22 1010.84        
Jun 11 02:42 S 26 16.09 Clear   23 17     69%   23 1010.5        
Jun 11 02:32 S 24 16.09 Clear CLR 23 17     69%   23 1010.84        
Jun 11 01:15 S 32 16.09 Clear and Windy CLR 23 17     69%   23 1010.5        
Jun 11 00:55 S 26 16.09 Clear CLR 23 17     69%   23 1010.8        
Jun 11 00:15 S 26 16.09 Clear CLR 23 17     69%   23 1010.8        
Jun 10 22:22 SSE 22 16.09 Clear CLR 25 18     65%   25 1010.16        
Jun 10 22:07 S 28 16.09 Clear   25 18     65%   25 1009.82        
Jun 10 21:12 SSE 22 16.09 Clear CLR 26 18     61%   26 1009.14        
Jun 10 18:35 S 28 16.09 Clear CLR 28 18     55%   29 1008.1        
Jun 10 18:27 SSE 35 16.09 Partly Cloudy and Windy SCT040 29 19     55%   30 1008.13        
Jun 10 18:17 SSE 39 16.09 Clear and Windy   29 19     55%   30 1008.13        
Jun 10 17:02 SSE 37 16.09 Partly Cloudy and Windy SCT040 29 19     55%   30 1008.13        
Jun 10 13:22 SSE 37 16.09 Mostly Cloudy and Windy BKN036 28 18     55%   29 1010.16        
Jun 10 13:12 S 28 16.09 Mostly Cloudy BKN036 28 18     55%   29 1010.5        
Jun 10 11:07 S 35 16.09 Clear and Windy CLR 27 18     58%   28 1010.5        
Jun 10 09:42 S 37 16.09 Clear and Windy CLR 24 17     65%   24 1011.18        
Notice The following observation data may not be complete
Jun 10 09:15   16.09 Clear CLR          %              
Notice The following observation data may not be complete
Jun 10 07:42   16.09 Clear CLR          %              
Jun 10 06:55 S 21 16.09 Clear CLR 20 16     78%     1010.8        
Jun 10 02:57 SSE 11 16.09 Clear CLR 18 16     88%     1009.82        
Jun 10 01:42 SSE 11 16.09 Clear CLR 19 15     78%     1010.5        
Jun 10 01:32 SSE 11 16.09 Clear CLR 19 15     78%     1010.5        
Jun 10 01:17 SSE 13 16.09 Clear CLR 19 15     78%     1010.5        
Notice The following observation data may not be complete
Jun 10 00:47   16.09 Clear CLR          %              
Notice The following observation data may not be complete
Jun 09 21:35 SSE 13 16.09 Clear CLR   15      %     1010.5        
Notice The following observation data may not be complete
Jun 09 20:47   16.09 Clear CLR          %              
Jun 09 20:12 SSE 15 16.09 Clear CLR 24 16     61%   24 1010.5        
Jun 09 19:07 SSE 19 16.09 Clear CLR 27 14     45%   27 1010.5        
Notice The following observation data may not be complete
Jun 09 18:47   16.09 Clear CLR          %              
Jun 09 17:26 SSE 22 16.09 Clear CLR 28 14     42%   28 1010.84        
Jun 09 16:52 SSE 24 16.09 Clear CLR 28 14     42%   28 1011.18        
Jun 09 16:22 SSE 22 16.09 Partly Cloudy SCT050 28 14     42%   28 1011.51        
Notice The following observation data may not be complete
Jun 09 16:15   16.09 Partly Cloudy SCT050          %              
Jun 09 15:15 SSE 22 16.09 Clear CLR 28 14     42%   28 1011.9        
Jun 09 15:02 SSE 26 16.09 Clear CLR 28 14     42%   28 1011.85        
Jun 09 14:52 S 20 16.09 Partly Cloudy SCT050 28 14     42%   28 1011.85        
Notice The following observation data may not be complete
Jun 09 13:47   16.09 Partly Cloudy SCT050          %              
Notice The following observation data may not be complete
Jun 09 08:55   16.09 Clear CLR          %              
Jun 09 07:15 Calm 16.09 Clear CLR 16 14     88%     1013.6        
Notice The following observation data may not be complete
Jun 09 04:57   16.09 Clear CLR          %              
Jun 09 02:07 Calm 16.09 Clear CLR 16 13     82%     1012.53        
Jun 09 01:07 Calm 16.09 Clear CLR 17 14     83%     1013.21        
Jun 08 23:42 Calm 16.09 Clear CLR 18 14     77%     1013.55        
Notice The following observation data may not be complete
Jun 08 22:42   16.09 Clear CLR          %              
Jun 08 19:32 ESE 9 16.09 Clear   26 11     39%   26 1012.87        
Jun 08 19:17 ESE 9 16.09 Clear CLR 26 10     37%   26 1013.21        
Jun 08 19:02 SSE 6 16.09 Clear CLR 26 9     34%   26 1013.21        
Jun 08 18:52 SSE 9 16.09 Clear CLR 27 10     34%   27 1013.21        
Jun 08 15:02 SSE 7 16.09 Clear CLR 27 7     28%   26 1015.58        
Jun 08 14:17 SSW 9 16.09 Clear CLR 27 8     30%   27 1015.92        
Jun 08 12:27 S 9 16.09 Clear CLR 25 8     34%   24 1017.27        
Jun 08 11:52 SSE 9 16.09 Clear CLR 25 8     34%   24 1017.61        
Notice The following observation data may not be complete
Jun 08 10:57   16.09 Clear CLR          %              
Jun 08 08:55 ENE 5 16.09 Clear CLR 20 14     68%     1018.3        
Jun 08 08:42 Calm 16.09 Clear CLR 20 15     73%     1018.29        
Jun 08 08:27 Calm 16.09 Clear   19 14     73%     1018.29        
Jun 08 07:55 Calm 16.09 Clear CLR 17 13     77%     1018.3        
Jun 08 06:57 Calm 16.09 Clear CLR 13 12     94%     1017.95        
Jun 07 21:27 ENE 6 16.09 Clear CLR 21 12     56%     1016.93        
Jun 07 21:17 ENE 6 16.09 Clear CLR 22 12     53%   22 1016.93        
Jun 07 21:12 ENE 6 16.09 Clear CLR 22 12     53%   22 1016.93        
Jun 07 18:07 ENE 15 16.09 Clear CLR 26 9     34%   26 1016.93        
Jun 07 17:07 E 11 16.09 Clear CLR 27 8     30%   27 1017.27        
Notice The following observation data may not be complete
Jun 07 15:42   16.09 Clear CLR          %              
Notice The following observation data may not be complete
Jun 07 14:42   16.09 Clear CLR          %              
Jun 07 13:37 ENE 7 16.09 Clear CLR 26 7     30%   25 1018.29        
Jun 07 13:35 E 8 16.09 Clear CLR 25 6     30%   24 1018.3        
Jun 07 12:02 NE 15 16.09 Clear CLR 25 8     34%   24 1018.96        
Jun 07 11:22 NE 13 16.09 Clear CLR 25 8     34%   24 1018.96        
Jun 07 10:47 NNE 17 16.09 Clear CLR 24 8     36%   23 1018.96        
Jun 07 09:35 ENE 13 16.09 Clear CLR 22 10     46%   21 1019        
Jun 07 09:02 ENE 13 16.09 Clear CLR 21 11     53%     1018.63        
Jun 06 15:15 NNE 18 16.09 Clear CLR 29 13     37%   28 1013.9        
Jun 06 14:12 NNE 26 16.09 Clear CLR 29 14     40%   29 1014.22        
Jun 06 13:57 N 20 16.09 Clear CLR 29 13     37%   28 1014.56        
Notice The following observation data may not be complete
Jun 06 12:42   16.09 Clear CLR          %              
Jun 06 12:37 NNE 20 16.09 Clear CLR 29 14     40%   29 1014.56        
Jun 06 11:55 NNE 15 16.09 Clear CLR 27 15     48%   27 1014.9        
Jun 06 11:32 NE 15 16.09 Clear CLR 27 17     54%   28 1014.56        
Jun 06 09:02 NNE 11 16.09 Clear CLR 23 16     65%   23 1014.22        
Jun 06 08:02 N 9 16.09 Clear CLR 21 16     73%     1013.88        
Jun 06 07:42 N 6 16.09 Clear CLR 21 16     73%     1013.55        
Jun 06 07:35 N 8 16.09 Clear CLR 20 16     78%     1013.9        
Jun 06 06:55 N 8 16.09 Clear CLR 18 16     88%     1013.2        
Jun 06 05:55 N 9 16.09 Clear CLR 17 16     94%     1012.9        
Notice The following observation data may not be complete
Jun 06 04:52   16.09 Clear CLR          %              
Notice The following observation data may not be complete
Jun 06 02:57   16.09 Clear CLR          %              
Jun 06 02:55 Calm 16.09 Clear CLR 20 17     83%     1012.2        
Jun 06 00:55 Calm 16.09 Clear CLR 20 18     88%     1011.9        
Jun 05 22:42 W 6 16.09 Clear CLR 23 19     78%   23 1011.51        
Jun 05 22:37 Calm 16.09 Clear   23 19     78%   23 1011.51        
Jun 05 21:55 Calm 16.09 Clear   23 19     78%   23 1011.2        
Jun 05 19:37 E 9 16.09 Clear CLR 29 17     48%   29 1010.16        
Jun 05 18:22 ENE 19 16.09 Clear CLR 30 16     43%   30 1009.48        
Jun 05 17:22 NE 15 16.09 Clear CLR 31 16     40%   31 1009.14        
Notice The following observation data may not be complete
Jun 05 14:15   16.09 Clear CLR          %